Location: Trois-Rivi�res
(46.3500°N, 72.5500°W)
Time: 14:16:12
(UTC-04:00)

Cosmos 1544 - Visible Passes

Search period start: 25 July 2014 00:00
Search period end: 04 August 2014 00:00
Orbit: 501 x 527 km, 82.5° (Epoch: 24 July)

Date Brightness Start Highest point End Pass type
(mag) Time Alt. Az. Time Alt. Az. Time Alt. Az.
25 Jul 6.2 04:19:04 10° ESE 04:21:02 14° E 04:23:01 10° NE visible
26 Jul 6.3 04:04:22 10° ESE 04:05:34 11° E 04:06:46 10° ENE visible
29 Jul 3.4 04:50:12 10° S 04:54:00 74° E 04:57:48 10° NNE visible
30 Jul 3.8 04:34:41 10° S 04:38:26 59° E 04:42:11 10° NNE visible
31 Jul 4.1 04:19:12 10° SSE 04:22:52 47° E 04:26:32 10° NNE visible
01 Aug 4.5 04:03:46 10° SSE 04:07:19 38° E 04:10:51 10° NNE visible
02 Aug 4.9 03:48:23 10° SSE 03:51:45 31° E 03:55:08 10° NNE visible
03 Aug 5.2 03:33:03 10° SSE 03:36:13 26° E 03:39:22 10° NNE visible
